User: anonymous   Login
Location: Vancouver
(49.2500°N, 123.1330°W)
Time: 23:52:08
(UTC-07:00)
Language:

YAOGAN 6 - Orbit

View from above orbital plane
View from above orbital plane
View from above satellite
View from above satellite

Ground track
Ground track

The orbit data is extracted from the following two-line orbital elements,

1 34839U 09021A   17229.91917608 +.00000692 +00000-0 +29500-4 0  9998
2 34839 097.1385 277.7262 0030586 101.4755 258.9921 15.25729045461973
Epoch (UTC): 17 August 2017 22:03:36
Eccentricity: 0.0030586
inclination: 97.1385°
perigee height: 467 km
apogee height: 509 km
right ascension of ascending node: 277.7262°
argument of perigee: 101.4755°
revolutions per day: 15.25729045
mean anomaly at epoch: 258.9921°
orbit number at epoch: 46197

The dashed part of the orbit path shows where the satellite is in the earth's shadow,  

DLR